Regional Weather Roundup
Issued by NWS Goodland, KS

Home | Current Version | Previous Version | Graphics & Text | Print | Product List | Glossary On
Versions: 1 2 3 4 5 6 7 8 9 10 11 12 13 14 15 16 17 18 19 20 21 22 23 24 25 26 27 28 29 30 31 32 33 34 35 36 37 38 39 40 41 42 43 44 45 46 47 48 49 50
975
ASUS43 KGLD 220908
RWRGLD

GOODLAND FORECAST AREA HOURLY WEATHER ROUNDUP
NATIONAL WEATHER SERVICE GOODLAND KS
300 AM MDT TUE MAY 22 2018

...OFFICIAL OBSERVATIONS...

CITY           SKY/WX    TMP DP  RH WIND       PRES   REMARKS
GOODLAND KS    MOCLDY    60  45  57 S9        29.93S
HILL CITY KS   CLOUDY    64  59  83 S9        29.93S
IMPERIAL NEB   CLEAR     56  54  93 S8        29.90S
MCCOOK NEB     PTCLDY    61  58  90 SW6       29.89R
AKRON CO       CLEAR     56  44  64 S10       29.95R
BURLINGTON CO  CLOUDY    58  44  60 SW10      29.96F
LIMON CO       MOCLDY    50  41  71 S7        30.01S
$$

...UNOFFICIAL OBSERVATIONS...

CITY           SKY/WX    TMP DP  RH WIND       PRES   REMARKS
COLBY KS       MOCLDY    61  57  88 S10       29.94F
NORTON KS      CLEAR     63  57  82 S10       29.92
SHARON SPRINGS   N/A     57  53  87 MISG        N/A
KIT CARSON CO    N/A     49  42  77 CALM        N/A
YUMA CO        FAIR      50  43  76 SW5       29.94R
$$




USA.gov is the U.S. government's official web portal to all federal, state and local government web resources and services.